Location: Owl River
(54.8872°N, 111.8867°W)
Time: 15:31:19
(UTC+00:00)

BlueWalker 3 - Pass Details

Date: 24 April 2024
Orbit: 481 x 494 km, 53.2° (Epoch: 26 May)

Event Time Altitude Azimuth Distance (km) Brightness Sun altitude
Rises 04:04:33 0° 257° (WSW) 2,572 6.1 -10.0°
Reaches altitude 10° 04:06:44 10° 254° (WSW) 1,692 5.1 -10.3°
Maximum altitude 04:10:32 66° 172° (S) 545 1.9 -10.7°
Drops below altitude 10° 04:14:21 10° 91° (E) 1,700 4.2 -11.1°
Enters shadow 04:14:29 - 90° (E) 1,753 4.3 -11.1°
